Location: Castiglione Fibocchi
(43.5333°N, 11.7667°E)
Time: 18:58:55
(UTC+00:00)

Meteor 1-11 - Pass Details

Date: 15 August 2020
Orbit: 840 x 887 km, 81.2° (Epoch: 20 September)

Event Time Altitude Azimuth Distance (km) Brightness Sun altitude
Rises 02:18:32 0° 350° (N) 3,478 7.9 -19.2°
Reaches altitude 10° 02:21:00 10° 350° (N) 2,529 7.1 -18.9°
Maximum altitude 02:26:46 86° 79° (E) 871 4.2 -18.1°
Drops below altitude 10° 02:32:25 10° 170° (S) 2,479 6.3 -17.3°
Enters shadow 02:33:52 - 170° (S) 3,036 6.8 -17.1°
